{"data":{"norad_id":43803,"intl_designator":"2018-099AX","name":"JY1SAT (JO-97)","alt_names":[],"object_type":"PAYLOAD","status":"ACTIVE","operator":null,"country":"JOR","launch_date":"2018-12-03","launch_site_code":"AFWTR","launch_vehicle":null,"mission":null,"orbit_class":"UNKNOWN","rcs_meters":null,"size_class":null,"mass_kg":null,"dimensions":null,"purposes":["comms"],"wikipedia_slug":null,"has_3d_model":false,"image_url":null,"decayed_at":null,"tle_current":{"epoch":"2026-09-19T10:04:19.480224Z","epoch_age_seconds":111679,"freshness":"FRESH","line1":"1 43803U 18099AX  26262.41966991  .00012286  00000+0  34786-3 0  9997","line2":"2 43803  97.4022 325.7200 0003853 296.9693  63.1158 15.36423222428082","mean_motion":15.36423222,"eccentricity":0.0003853,"inclination_deg":97.4022,"raan_deg":325.72,"arg_perigee_deg":296.9693,"mean_anomaly_deg":63.1158,"bstar":0.00034786,"rev_number":42808,"period_min":93.724175694606,"perigee_km":454.06293665202,"apogee_km":459.32985926849,"semimajor_km":6834.8333979603,"source":"CELESTRAK","updated_at":"2026-09-20T09:00:45.235609Z"}}}